{"data":{"norad_id":68879,"epoch":"2026-05-24T23:23:24.792000Z","epoch_age_seconds":67306,"freshness":"FRESH","line1":"1 68879U 26095R   26144.97459250  .00022901  00000+0  65829-3 0  9994","line2":"2 68879  51.8701 354.9286 0010836 225.1847 134.8259 15.35660041  4159","mean_motion":15.35660041,"eccentricity":0.0010836,"inclination_deg":51.8701,"raan_deg":354.9286,"arg_perigee_deg":225.1847,"mean_anomaly_deg":134.8259,"bstar":0.00065829,"rev_number":415,"period_min":93.770754044124,"perigee_km":451.55201476808,"apogee_km":466.36937289015,"semimajor_km":6837.0976938291,"source":"CELESTRAK","updated_at":"2026-05-25T13:38:08.648611Z"}}